sat.trackr.live / text

‹ back to catalog

STARLINK-6136

NORAD 56540 · 2023-065AP

PAYLOAD ACTIVE UNKNOWN

§ Identity

Operator
Country
US
Launch date
2023-05-14
Launch site
AFETR
Launch vehicle
Mass (kg)
RCS (m²)

Purposes: comms

External: N2YO · Heavens-Above · Gunter

§ Orbital elements

Epoch: 2026-05-25T01:39:48.047040Z

Period
94.27 min
Inclination
43.0024°
Eccentricity
0.0001066
Mean motion
15.27585687 rev/d
Perigee alt
482.3 km
Apogee alt
483.8 km
Semi-major
6,861.2 km
B*
-2.1774e-5
RAAN
155.6281°
Arg perigee
299.3291°
Mean anomaly
60.7455°
Rev number
16,811

§ Raw data

STARLINK-61361 56540U 23065AP  26145.06930610 -.00000861  00000+0 -21774-4 0  99902 56540  43.0024 155.6281 0001066 299.3291  60.7455 15.27585687168119

JSON: /api/v1/satellites/56540 · /tle

For live sub-satellite position, see the globe view (requires WebGL).

§ Visibility from observer

Set your observer location to see the next 7 days of passes ≥ 10°. The values pass through the URL so the page stays shareable.

No JS? Fill the form by hand. The geolocation button needs JavaScript.